Location: Newark
(46.7114°N, 6.1944°E)
Time: 04:23:59
(UTC+00:00)

N. Korean satellite - Visible Passes

Search period start: 18 November 2019 00:00
Search period end: 28 November 2019 00:00
Orbit: 456 x 506 km, 97.2° (Epoch: 17 November)

Date Brightness Start Highest point End Pass type
(mag) Time Alt. Az. Time Alt. Az. Time Alt. Az.
18 Nov 8.5 05:00:52 10° NNE 05:04:16 33° E 05:07:36 10° SSE visible
18 Nov 8.7 17:12:09 10° SSW 17:15:26 32° W 17:18:47 10° NNW visible
19 Nov 9.7 04:36:09 10° NE 04:38:42 17° E 04:41:13 10° SE visible
19 Nov 7.1 16:46:20 10° S 16:49:57 65° W 16:53:39 10° NNW visible
20 Nov 6.5 05:43:13 10° N 05:46:56 74° WNW 05:50:35 10° SSW visible
20 Nov 10.3 17:57:25 10° WSW 17:58:23 11° W 17:59:22 10° WNW visible
21 Nov 7.5 05:17:53 10° NNE 05:21:32 53° E 05:25:07 10° S visible
21 Nov 9.5 17:29:56 10° SW 17:32:44 21° W 17:35:35 10° NW visible
22 Nov 8.9 04:52:51 10° NE 04:56:03 27° E 04:59:10 10° SSE visible
22 Nov 8.2 17:03:45 10° SSW 17:07:12 39° W 17:10:44 10° NNW visible
23 Nov 10.0 04:28:24 10° ENE 04:30:26 14° E 04:32:27 10° SE visible
23 Nov 6.9 06:00:33 10° N 06:04:05 45° WNW 06:07:34 10° SW visible
23 Nov 6.8 16:38:05 10° S 16:41:45 82° WSW 16:45:30 10° NNW visible
24 Nov 6.6 05:35:02 10° NNE 05:38:45 88° ESE 05:42:22 10° SSW visible
24 Nov 10.0 17:48:12 10° WSW 17:50:05 13° W 17:51:59 10° WNW visible
25 Nov 8.0 05:09:46 10° NNE 05:13:18 42° E 05:16:45 10° S visible
25 Nov 9.1 17:21:23 10° SSW 17:24:28 25° W 17:27:36 10° NW visible
26 Nov 9.3 04:44:52 10° NE 04:47:46 22° E 04:50:36 10° SE visible
26 Nov 7.7 16:55:23 10° S 16:58:57 49° W 17:02:36 10° NNW visible
27 Nov 10.1 04:20:53 10° ENE 04:22:07 11° E 04:23:20 10° ESE visible
27 Nov 6.6 05:52:16 10° N 05:55:52 56° WNW 05:59:25 10° SSW visible
27 Nov 6.6 16:29:51 10° SSE 16:33:32 80° ENE 16:37:16 10° N visible
